Regional Weather Roundup
Issued by NWS

Home | Current Version | Previous Version | Graphics & Text | Print | Product List | Glossary On
Versions: 1 2 3 4 5 6 7 8 9 10 11 12 13 14 15 16 17 18 19 20 21 22 23 24 25 26 27 28 29 30 31 32 33 34 35 36 37 38 39 40 41 42 43 44 45 46 47 48 49 50
000
ASUS43 KDTX 201210
RWRMI
MICHIGAN HOURLY REGIONAL WEATHER ROUNDUP
NATIONAL WEATHER SERVICE DETROIT/PONTIAC MI
ISSUED BY NATIONAL WEATHER SERVICE GRAND RAPIDS MI
700 AM EST MON FEB 20 2017

NOTE: "FAIR" INDICATES FEW OR NO CLOUDS BELOW 12,000 FEET WITH NO
SIGNIFICANT WEATHER AND/OR OBSTRUCTION TO VISIBILITY.

MIZ047>049-052>055-059>063-066>070-074>076-081>083-201300-
SOUTHEAST LOWER MICHIGAN

CITY           SKY/WX    TMP DP  RH WIND       PRES   REMARKS
ADRIAN         PTCLDY    35  31  85 NE3       30.24R
6HR MIN TEMP:  35; 6HR MAX TEMP:  39;

ALMA           PTCLDY    32  29  90 NE6       30.25S WCI  26
ANN ARBOR      CLOUDY    29  27  92 N3        30.24R
BAD AXE        CLOUDY    26  25  94 CALM      30.29R
6HR MIN TEMP:  25; 6HR MAX TEMP:  28;

DETROIT CITY   CLOUDY    34  30  85 E5        30.27R WCI  30
6HR MIN TEMP:  34; 6HR MAX TEMP:  39;

DETROIT        CLOUDY    36  30  79 NE3       30.25R
6HR MIN TEMP:  36; 6HR MAX TEMP:  40;

FLINT          MOCLDY    31  27  85 NE5       30.25S WCI  26
6HR MIN TEMP:  29; 6HR MAX TEMP:  38;

GROSSE ILE     PTCLDY    34  31  87 E7        30.23S WCI  28
6HR MIN TEMP:  34; 6HR MAX TEMP:  37;

HILLSDALE      CLOUDY    36  32  87 E6        30.21R WCI  31
HOWELL         PTCLDY    32  28  84 SE3       30.23R
6HR MIN TEMP:  30; 6HR MAX TEMP:  38;


CITY           SKY/WX    TMP DP  RH WIND       PRES   REMARKS
JACKSON        CLOUDY    36  29  75 SE6       30.22R WCI  31
6HR MIN TEMP:  34; 6HR MAX TEMP:  39;

LANSING        PTCLDY    32  26  78 E5        30.23R WCI  27
6HR MIN TEMP:  32; 6HR MAX TEMP:  39;

MASON          CLOUDY    37  32  81 SE3       30.22S
MONROE         CLOUDY    32  31  96 CALM      30.23R
6HR MIN TEMP:  32; 6HR MAX TEMP:  39;

MT. CLEMENS    PTCLDY    31  31  98 CALM      30.26R
6HR MIN TEMP:  29; 6HR MAX TEMP:  35;

PONTIAC        MOCLDY    30  25  81 NE3       30.23R
6HR MIN TEMP:  29; 6HR MAX TEMP:  36;

PORT HOPE        N/A     33  32  96 SE5       30.27R WCI  29
6HR MIN TEMP:  29; 6HR MAX TEMP:  33;

PORT HURON     CLOUDY    28  28 100 CALM      30.28R
TRI CITIES     CLOUDY    32  30  92 NE6       30.27R WCI  26
6HR MIN TEMP:  29; 6HR MAX TEMP:  36;

YPSILANTI      CLOUDY    32  30  92 CALM      30.25R
6HR MIN TEMP:  32; 6HR MAX TEMP:  39;

$$
MIZ043>046-050>051-056>058-064>065-071>073-077>080-201300-
SOUTHWEST LOWER MICHIGAN

CITY           SKY/WX    TMP DP  RH WIND       PRES   REMARKS
BATTLE CREEK   MOCLDY    39  30  70 CALM      30.21R
6HR MIN TEMP:  34; 6HR MAX TEMP:  39;

BENTON HARBOR  CLOUDY    44  27  51 SE7       30.16F
6HR MIN TEMP:  34; 6HR MAX TEMP:  44;

BIG RAPIDS     CLOUDY    34  28  78 CALM      30.22R
6HR MIN TEMP:  28; 6HR MAX TEMP:  34;

COLDWATER      PTCLDY    32  30  92 SE5       30.21R WCI  28
6HR MIN TEMP:  32; 6HR MAX TEMP:  36;

HOLLAND        PTCLDY    37  29  72 E6        30.18S WCI  32
6HR MIN TEMP:  33; 6HR MAX TEMP:  38;

GRAND RAPIDS   CLOUDY    35  29  78 E7        30.21R WCI  29
6HR MIN TEMP:  33; 6HR MAX TEMP:  38;

KALAMAZOO      CLOUDY    34  27  75 CALM      30.20S
6HR MIN TEMP:  31; 6HR MAX TEMP:  38;

MARSHALL       PTCLDY    36  31  82 E3        30.21S
6HR MIN TEMP:  31; 6HR MAX TEMP:  37;

MOUNT PLEASANT CLOUDY    30  28  94 CALM      30.25S
6HR MIN TEMP:  28; 6HR MAX TEMP:  35;

MUSKEGON       CLOUDY    38  31  76 E9        30.19R WCI  31
6HR MIN TEMP:  34; 6HR MAX TEMP:  40;

STURGIS        PTCLDY    40  30  66 SE5       30.19S
6HR MIN TEMP:  35; 6HR MAX TEMP:  43;

$$
MIZ016>042-201300-
NORTHERN LOWER MICHIGAN

CITY           SKY/WX    TMP DP  RH WIND       PRES   REMARKS
ALPENA         PTCLDY    33  30  88 E6        30.32R WCI  28
6HR MIN TEMP:  26; 6HR MAX TEMP:  33;

BEAVER ISLAND  CLOUDY    31  30  96 E6        30.24S WCI  25
6HR MIN TEMP:  31; 6HR MAX TEMP:  35;

BELLAIRE       PTCLDY    26  26  98 CALM      30.24S
6HR MIN TEMP:  26; 6HR MAX TEMP:  29;

CADILLAC       CLOUDY    33  28  83 CALM      30.21R
CHARLEVOIX     CLOUDY    33  29  84 E5        30.26F WCI  28
GAYLORD        PTCLDY    32  25  75 E3        30.23S
6HR MIN TEMP:  28; 6HR MAX TEMP:  33;

HOUGHTON LAKE  CLOUDY    27  24  89 E5        30.24S WCI  22
6HR MIN TEMP:  24; 6HR MAX TEMP:  30;

MANISTEE       CLOUDY    31  28  89 E7        30.19R WCI  24
OSCODA         PTCLDY    34  32  93 E6        30.30R WCI  28
6HR MIN TEMP:  25; 6HR MAX TEMP:  34;

PELLSTON       CLOUDY    26  22  84 CALM      30.27F
6HR MIN TEMP:  24; 6HR MAX TEMP:  27;

TRAVERSE CITY  CLOUDY    33  29  85 CALM      30.22S
6HR MIN TEMP:  28; 6HR MAX TEMP:  34;

LUDINGTON      CLOUDY    35  31  84 E6        30.19R WCI  30
6HR MIN TEMP:  31; 6HR MAX TEMP:  38;

$$
MIZ007>008-015-201300-
EASTERN UPPER MICHIGAN

CITY           SKY/WX    TMP DP  RH WIND       PRES   REMARKS
KINROSS        CLOUDY    31  27  85 SE16      30.30R WCI  20
6HR MIN TEMP:  28; 6HR MAX TEMP:  33;

MACKINAC ISLAN CLOUDY    33  32  96 E13G22    30.27S WCI  24
6HR MIN TEMP:  31; 6HR MAX TEMP:  34;

NEWBERRY       CLOUDY    31  28  90 E10       30.23F WCI  22
6HR MIN TEMP:  27; 6HR MAX TEMP:  31;

S. S. MARIE    PTCLDY    30  25  81 E5        30.31R WCI  25
6HR MIN TEMP:  28; 6HR MAX TEMP:  32;

$$
MIZ004>006-011>014-085-201300-
CENTRAL UPPER MICHIGAN

CITY           SKY/WX    TMP DP  RH WIND       PRES   REMARKS
MANISTIQUE     CLOUDY    32  31  97 E10       30.23R WCI  24
6HR MIN TEMP:  31; 6HR MAX TEMP:  33;

ESCANABA       PTCLDY    34  31  88 E8        30.20R WCI  27
6HR MIN TEMP:  27; 6HR MAX TEMP:  34;

MENOMINEE      PTCLDY    36  32  85 E9        30.18R WCI  29
6HR MIN TEMP:  28; 6HR MAX TEMP:  36;

SAWYER-GWINN   CLEAR     34  28  80 S10       30.17R WCI  26
$$
MIZ001>003-009>011-084-201300-
WESTERN UPPER MICHIGAN

CITY           SKY/WX    TMP DP  RH WIND       PRES   REMARKS
IRON MOUNTAIN  CLOUDY    32  27  81 SE5       30.16R WCI  27
6HR MIN TEMP:  29; 6HR MAX TEMP:  34;

HOUGHTON       CLOUDY    35  29  78 E10       30.10R WCI  27
6HR MIN TEMP:  34; 6HR MAX TEMP:  35;

COPPER HARBOR    N/A     36  30  79 SW12G25   30.12R WCI  28
6HR MIN TEMP:  35; 6HR MAX TEMP:  36;

IRONWOOD       MOCLDY    44  31  60 SE15G22   29.98F
6HR MIN TEMP:  43; 6HR MAX TEMP:  47;

$$

ABBREVIATIONS USED IN REMARKS
   TC - TEMPERATURE IN CELSIUS
  WCI - WIND CHILL INDEX
   HX - HEAT INDEX
  VSB - VISIBILITY





USA.gov is the U.S. government's official web portal to all federal, state and local government web resources and services.